Concordia, KS

9:23 AM CDT on July 27, 2017 (GMT -0500)
Blosser Municipal

Weather History for KCNK - February, 2013

Change the Weather History Date:

Monday, February 25, 2013

  Actual Average Record
Temperature  
Mean Temperature 32 °F 36 °F  
Max Temperature 35 °F 47 °F 77 °F (1995)
Min Temperature 29 °F 25 °F -2 °F (2003)
Degree Days  
Heating Degree Days 33 29  
Month to date heating degree days 809 816  
Since 1 July heating degree days 3917 4120  
Cooling Degree Days 0 0  
Month to date cooling degree days 0 0  
Year to date cooling degree days 0 0  
Moisture  
Dew Point 27 °F    
Average Humidity 81    
Maximum Humidity 92    
Minimum Humidity 69    
Precipitation  
Precipitation 0.09 in 0.03 in 1.00 in (1912)
Month to date precipitation 0.67 0.69  
Year to date precipitation 1.36 1.27  
Snow  
Snow 1.00 in 0.10 in 3.50 in (1993)
Month to date snowfall 7.5 4.5  
Year to date snowfall 12.7 10.2  
Since 1 July snowfall 21.2 16.7  
Snow Depth 3.00 in    
Sea Level Pressure  
Sea Level Pressure 29.97 in    
Wind  
Wind Speed 14 mph (NNE)    
Max Wind Speed 23 mph    
Max Gust Speed 28 mph    
Visibility 2 miles    
Events Fog , Snow    
T = Trace of Precipitation, MM = Missing Value Source: NWS Daily Summary

Daily Weather History Graph

Daily Weather History Graph

Search for Another Location

Airport or City:

Trip Planner

Search our weather history database for the weather conditions in past years. The results will help you decide how hot, cold, wet, or windy it might be!

Date:

Astronomy

Feb. 25, 2013 Rise Set
Actual Time 7:08 AM CST 6:18 PM CST
Civil Twilight 6:41 AM CST 6:45 PM CST
Nautical Twilight 6:10 AM CST 7:17 PM CST
Astronomical Twilight 5:39 AM CST 7:48 PM CST
Moon 6:33 PM CST (2/25) 6:40 AM CST (2/25)
Length of Visible Light 12h 04m
Length of Day
11h 09m
Full, 100% of the Moon is Illuminated
Feb 25
Full
Feb 25
Full
Mar 4
Last Quarter
Mar 11
New
Mar 19
First Quarter

Hourly Weather History & Observations

Time (CST) Temp. Windchill Dew Point Humidity Pressure Visibility Wind Dir Wind Speed Gust Speed Precip Events Conditions
12:11 AM 33.8 °F 25.8 °F 28.4 °F 81% 29.99 in 2.5 mi NNE 10.4 mph - 0.00 in Snow Light Snow
12:38 AM 33.8 °F 26.4 °F 28.4 °F 81% 29.99 in 3.0 mi NE 9.2 mph - 0.01 in   Haze
12:48 AM 33.8 °F 26.4 °F 28.4 °F 81% 29.99 in 2.0 mi NE 9.2 mph - 0.01 in Snow Light Snow
12:55 AM 33.1 °F 26.1 °F 28.0 °F 82% 30.03 in 2.0 mi NE 8.1 mph - 0.01 in Snow Light Snow
1:55 AM 32.0 °F 23.6 °F 28.9 °F 88% 30.02 in 1.5 mi NNE 10.4 mph - 0.00 in Snow Light Snow
2:05 AM 32.0 °F 22.1 °F 28.4 °F 87% 29.99 in 1.2 mi NNE 13.8 mph - 0.01 in Snow Light Snow
2:40 AM 30.2 °F 19.8 °F 28.4 °F 93% 29.98 in 0.8 mi North 13.8 mph - 0.01 in Snow Light Snow
2:55 AM 30.9 °F 21.2 °F 28.9 °F 92% 30.01 in 0.8 mi North 12.7 mph - 0.02 in Snow Light Snow
3:02 AM 30.2 °F 20.2 °F 28.4 °F 93% 29.98 in 0.8 mi North 12.7 mph - 0.00 in Snow Light Snow
3:11 AM 30.2 °F 19.8 °F 28.4 °F 93% 29.98 in 0.8 mi North 13.8 mph - 0.01 in Snow Light Snow
3:55 AM 30.0 °F 20.5 °F 28.0 °F 92% 30.01 in 0.8 mi North 11.5 mph - 0.01 in Snow Light Snow
4:55 AM 30.0 °F 20.0 °F 28.0 °F 92% 30.01 in 0.8 mi NNE 12.7 mph - 0.02 in Snow Light Snow
5:32 AM 30.2 °F 19.8 °F 28.4 °F 93% 29.98 in 1.0 mi NNE 13.8 mph - 0.00 in Snow Light Snow
5:55 AM 30.0 °F 20.0 °F 28.0 °F 92% 30.01 in 1.0 mi NNE 12.7 mph - 0.00 in Snow Light Snow
6:55 AM 30.9 °F 21.2 °F 28.0 °F 89% 30.02 in 1.0 mi NNE 12.7 mph - 0.01 in Snow Light Snow
7:25 AM 30.2 °F 19.8 °F 28.4 °F 93% 29.98 in 0.8 mi NNE 13.8 mph - 0.00 in Snow Light Snow
7:55 AM 30.9 °F 21.7 °F 28.0 °F 89% 30.03 in 0.5 mi NNE 11.5 mph - 0.00 in Fog , Snow Light Snow
8:19 AM 30.2 °F 20.2 °F 28.4 °F 93% 29.99 in 0.8 mi NNE 12.7 mph - 0.00 in Snow Light Snow
8:55 AM 30.9 °F 21.7 °F 28.0 °F 89% 30.04 in 1.0 mi NNE 11.5 mph - 0.01 in Snow Light Snow
9:13 AM 30.2 °F 20.2 °F 28.4 °F 93% 30.00 in 1.0 mi North 12.7 mph - 0.00 in Snow Light Snow
9:35 AM 30.2 °F 20.2 °F 28.4 °F 93% 30.01 in 1.0 mi North 12.7 mph - 0.00 in Snow Light Snow
9:44 AM 30.2 °F 20.2 °F 28.4 °F 93% 30.01 in 0.8 mi North 12.7 mph - 0.00 in Snow Light Snow
9:55 AM 30.9 °F 20.2 °F 28.0 °F 89% 30.04 in 0.8 mi North 15.0 mph - 0.00 in Snow Light Snow
10:03 AM 30.2 °F 20.2 °F 28.4 °F 93% 30.00 in 0.8 mi NNE 12.7 mph - 0.00 in Snow Light Snow
10:52 AM 30.2 °F 20.2 °F 26.6 °F 86% 29.99 in 1.0 mi NNE 12.7 mph - 0.01 in Snow Light Snow
10:55 AM 30.9 °F 21.2 °F 28.0 °F 89% 30.02 in 1.0 mi NNE 12.7 mph - 0.01 in   Overcast
11:11 AM 30.2 °F 20.2 °F 26.6 °F 86% 29.97 in 1.5 mi NNE 12.7 mph - 0.00 in   Overcast
11:21 AM 30.2 °F 19.8 °F 28.4 °F 93% 29.96 in 1.8 mi NNE 13.8 mph - 0.00 in   Overcast
11:40 AM 32.0 °F 22.5 °F 28.4 °F 87% 29.96 in 2.0 mi NNE 12.7 mph - 0.00 in   Overcast
11:55 AM 33.1 °F 23.0 °F 27.0 °F 78% 29.99 in 2.5 mi NNE 15.0 mph - 0.00 in   Haze
12:27 PM 33.8 °F 23.5 °F 26.6 °F 75% 29.94 in 3.0 mi NNE 16.1 mph - N/A   Haze
12:55 PM 33.1 °F 22.6 °F 27.0 °F 78% 29.97 in 3.0 mi NNE 16.1 mph 23.0 mph N/A   Haze
1:16 PM 33.8 °F 23.9 °F 26.6 °F 75% 29.93 in 3.0 mi NNE 15.0 mph - N/A   Haze
1:55 PM 34.0 °F 24.6 °F 27.0 °F 75% 29.96 in 4.0 mi NNE 13.8 mph - N/A   Haze
2:13 PM 35.6 °F 26.6 °F 26.6 °F 70% 29.91 in 4.0 mi NNE 13.8 mph - N/A   Haze
2:55 PM 34.0 °F 23.8 °F 25.0 °F 70% 29.94 in 5.0 mi NNE 16.1 mph - N/A   Haze
3:55 PM 34.0 °F 23.0 °F 25.0 °F 70% 29.94 in 5.0 mi NNE 18.4 mph 25.3 mph N/A   Haze
4:55 PM 34.0 °F 22.4 °F 26.1 °F 73% 29.93 in 4.0 mi NNE 20.7 mph 24.2 mph N/A   Haze
5:55 PM 33.1 °F 23.4 °F 26.1 °F 75% 29.91 in 4.0 mi North 13.8 mph 23.0 mph N/A   Haze
6:55 PM 32.0 °F 20.5 °F 26.1 °F 79% 29.89 in 5.0 mi North 18.4 mph 25.3 mph N/A   Haze
7:55 PM 30.9 °F 19.4 °F 26.1 °F 82% 29.87 in 5.0 mi North 17.3 mph - N/A   Haze
8:55 PM 30.9 °F 20.2 °F 25.0 °F 79% 29.89 in 5.0 mi North 15.0 mph - N/A   Haze
9:55 PM 30.0 °F 22.4 °F 25.0 °F 82% 29.92 in 4.0 mi North 8.1 mph - N/A   Haze
10:55 PM 30.0 °F 20.5 °F 25.0 °F 82% 29.91 in 5.0 mi North 11.5 mph - N/A   Haze
11:55 PM 28.9 °F 19.2 °F 24.1 °F 82% 29.89 in 4.0 mi North 11.5 mph - N/A   Haze